When you browse on this site, cookies collect data to enhance your experience and personalize the content and advertising you see.
Visit our Privacy Policy to learn more. By continuing to use the site, you agree to this use of cookies and data.
  • en Suisse
  • Liste des pays
  • À 7 jours
  • Température de l'eau
  • Carte météo
  • Widgets météo
  • user-avatar
    Se connecter

    Météo par heure à Yantai

    Ce jour, 7 Juin, Dimanche

    Heure Température Précipitation Vent Pression Humidité
    00:00 +21°C° 0 mm 3 m/s 754 mmHg 82%
    01:00 +21°C° 0 mm 3 m/s 753 mmHg 85%
    02:00 +21°C° 0 mm 2 m/s 753 mmHg 91%
    03:00 +21°C° 0 mm 2 m/s 754 mmHg 90%
    04:00 +21°C° 0 mm 2 m/s 754 mmHg 90%
    05:00 +21°C° 0 mm 3 m/s 754 mmHg 90%
    06:00 +24°C° 0 mm 3 m/s 754 mmHg 80%
    07:00 +26°C° 0 mm 3 m/s 753 mmHg 71%
    08:00 +28°C° 0 mm 3 m/s 753 mmHg 62%
    09:00 +30°C° 0 mm 2 m/s 753 mmHg 55%
    10:00 +32°C° 0 mm 2 m/s 754 mmHg 48%
    11:00 +34°C° 0 mm 1 m/s 754 mmHg 41%
    12:00 +36°C° 0 mm 2 m/s 753 mmHg 38%
    13:00 +37°C° 0 mm 3 m/s 753 mmHg 35%
    14:00 +38°C° 0 mm 4 m/s 752 mmHg 33%
    15:00 +37°C° 0 mm 3 m/s 752 mmHg 36%
    16:00 +36°C° 0 mm 3 m/s 753 mmHg 40%
    17:00 +35°C° 0 mm 3 m/s 753 mmHg 43%
    18:00 +33°C° 0 mm 4 m/s 753 mmHg 48%
    19:00 +30°C° 0 mm 5 m/s 753 mmHg 52%
    20:00 +28°C° 0 mm 5 m/s 752 mmHg 56%
    21:00 +27°C° 0 mm 5 m/s 753 mmHg 58%
    22:00 +26°C° 0 mm 5 m/s 753 mmHg 60%
    23:00 +25°C° 0 mm 5 m/s 754 mmHg 62%

    Demain, 8 Juin, Lundi

    Heure Température Précipitation Vent Pression Humidité
    00:00 +25°C° 0 mm 5 m/s 754 mmHg 64%
    01:00 +25°C° 0 mm 5 m/s 754 mmHg 66%
    02:00 +23°C° 0 mm 5 m/s 754 mmHg 68%
    03:00 +23°C° 0 mm 5 m/s 754 mmHg 70%
    04:00 +23°C° 0 mm 5 m/s 755 mmHg 71%
    05:00 +23°C° 0 mm 5 m/s 755 mmHg 73%
    06:00 +25°C° 0 mm 5 m/s 755 mmHg 67%
    07:00 +27°C° 0 mm 5 m/s 756 mmHg 62%
    08:00 +29°C° 0 mm 5 m/s 756 mmHg 56%
    09:00 +30°C° 0 mm 4 m/s 756 mmHg 51%
    10:00 +33°C° 0 mm 4 m/s 756 mmHg 46%
    11:00 +35°C° 0 mm 4 m/s 757 mmHg 41%
    12:00 +35°C° 0 mm 5 m/s 756 mmHg 41%
    13:00 +34°C° 0 mm 5 m/s 756 mmHg 40%
    14:00 +34°C° 0 mm 6 m/s 756 mmHg 40%
    15:00 +33°C° 0 mm 6 m/s 756 mmHg 42%
    16:00 +32°C° 0 mm 6 m/s 756 mmHg 44%
    17:00 +30°C° 0 mm 6 m/s 756 mmHg 46%
    18:00 +28°C° 0 mm 6 m/s 756 mmHg 53%
    19:00 +27°C° 0 mm 5 m/s 757 mmHg 60%
    20:00 +25°C° 0 mm 5 m/s 757 mmHg 67%
    21:00 +23°C° 0 mm 4 m/s 757 mmHg 69%
    22:00 +22°C° 0 mm 4 m/s 758 mmHg 71%
    23:00 +21°C° 0 mm 3 m/s 758 mmHg 72%

    Après-demain, 9 Juin, Mardi

    Heure Température Précipitation Vent Pression Humidité
    00:00 +21°C° 0 mm 3 m/s 758 mmHg 73%
    01:00 +20°C° 0 mm 4 m/s 757 mmHg 73%
    02:00 +20°C° 0 mm 4 m/s 757 mmHg 74%
    03:00 +20°C° 0 mm 3 m/s 757 mmHg 75%
    04:00 +19°C° 0 mm 3 m/s 757 mmHg 76%
    05:00 +19°C° 0 mm 3 m/s 757 mmHg 77%
    06:00 +21°C° 0 mm 3 m/s 758 mmHg 73%
    07:00 +22°C° 0 mm 4 m/s 758 mmHg 69%
    08:00 +25°C° 0 mm 5 m/s 758 mmHg 65%
    09:00 +26°C° 0 mm 5 m/s 758 mmHg 63%
    10:00 +28°C° 0 mm 6 m/s 758 mmHg 60%
    11:00 +29°C° 0 mm 6 m/s 758 mmHg 57%
    12:00 +30°C° 0 mm 6 m/s 758 mmHg 54%
    13:00 +30°C° 0 mm 6 m/s 757 mmHg 51%
    14:00 +30°C° 0 mm 6 m/s 757 mmHg 48%
    15:00 +29°C° 0 mm 5 m/s 757 mmHg 55%
    16:00 +28°C° 0 mm 5 m/s 756 mmHg 62%
    17:00 +27°C° 0 mm 5 m/s 756 mmHg 69%
    18:00 +26°C° 0.3 mm 5 m/s 756 mmHg 75%
    19:00 +25°C° 0.3 mm 5 m/s 756 mmHg 80%
    20:00 +23°C° 0.3 mm 5 m/s 756 mmHg 85%
    21:00 +22°C° 0.5 mm 5 m/s 756 mmHg 86%
    22:00 +22°C° 0.5 mm 5 m/s 756 mmHg 87%
    23:00 +22°C° 0.5 mm 5 m/s 756 mmHg 88%

    10 Juin, Mercredi

    Heure Température Précipitation Vent Pression Humidité
    00:00 +22°C° 1.9 mm 4 m/s 755 mmHg 90%
    01:00 +22°C° 1.9 mm 3 m/s 755 mmHg 92%
    02:00 +23°C° 1.9 mm 2 m/s 754 mmHg 93%
    03:00 +23°C° 3.5 mm 2 m/s 754 mmHg 94%
    04:00 +23°C° 3.5 mm 1 m/s 754 mmHg 95%
    05:00 +23°C° 3.5 mm 1 m/s 753 mmHg 95%
    06:00 +23°C° 1 mm 1 m/s 753 mmHg 94%
    07:00 +23°C° 1 mm 1 m/s 753 mmHg 92%
    08:00 +22°C° 1 mm 0 m/s 753 mmHg 91%
    09:00 +24°C° 0.1 mm 1 m/s 753 mmHg 88%
    10:00 +25°C° 0.1 mm 2 m/s 753 mmHg 86%
    11:00 +26°C° 0.1 mm 2 m/s 753 mmHg 83%
    12:00 +27°C° 0 mm 3 m/s 752 mmHg 78%
    13:00 +28°C° 0 mm 3 m/s 752 mmHg 72%
    14:00 +29°C° 0 mm 4 m/s 751 mmHg 66%
    15:00 +28°C° 0 mm 3 m/s 751 mmHg 70%
    16:00 +27°C° 0 mm 3 m/s 751 mmHg 73%
    17:00 +26°C° 0 mm 2 m/s 751 mmHg 76%
    18:00 +25°C° 0 mm 2 m/s 752 mmHg 81%
    19:00 +23°C° 0 mm 2 m/s 752 mmHg 86%
    20:00 +22°C° 0 mm 1 m/s 752 mmHg 91%
    21:00 +22°C° 0 mm 1 m/s 752 mmHg 90%
    22:00 +22°C° 0 mm 1 m/s 752 mmHg 89%
    23:00 +22°C° 0 mm 1 m/s 752 mmHg 88%

    11 Juin, Jeudi

    Heure Température Précipitation Vent Pression Humidité
    00:00 +22°C° 0 mm 1 m/s 752 mmHg 87%
    01:00 +20°C° 0 mm 2 m/s 752 mmHg 85%
    02:00 +20°C° 0 mm 2 m/s 752 mmHg 84%
    03:00 +21°C° 0 mm 1 m/s 752 mmHg 86%
    04:00 +21°C° 0 mm 1 m/s 752 mmHg 87%
    05:00 +21°C° 0 mm 1 m/s 752 mmHg 88%
    06:00 +23°C° 0 mm 1 m/s 753 mmHg 80%
    07:00 +24°C° 0 mm 1 m/s 753 mmHg 72%
    08:00 +26°C° 0 mm 1 m/s 753 mmHg 63%
    09:00 +28°C° 0 mm 2 m/s 752 mmHg 55%
    10:00 +29°C° 0 mm 2 m/s 752 mmHg 46%
    11:00 +31°C° 0 mm 2 m/s 752 mmHg 38%
    12:00 +33°C° 0 mm 3 m/s 752 mmHg 37%
    13:00 +33°C° 0 mm 3 m/s 752 mmHg 36%
    14:00 +34°C° 0 mm 4 m/s 751 mmHg 35%
    15:00 +33°C° 0 mm 4 m/s 751 mmHg 40%
    16:00 +30°C° 0 mm 4 m/s 751 mmHg 45%
    17:00 +29°C° 0 mm 4 m/s 751 mmHg 50%
    18:00 +28°C° 0 mm 3 m/s 751 mmHg 55%
    19:00 +27°C° 0 mm 3 m/s 751 mmHg 59%
    20:00 +25°C° 0 mm 3 m/s 751 mmHg 64%
    21:00 +25°C° 0 mm 3 m/s 751 mmHg 63%
    22:00 +24°C° 0 mm 3 m/s 751 mmHg 62%
    23:00 +24°C° 0 mm 3 m/s 751 mmHg 61%

    12 Juin, Vendredi

    Heure Température Précipitation Vent Pression Humidité
    00:00 +24°C° 0 mm 3 m/s 750 mmHg 63%
    01:00 +22°C° 0 mm 3 m/s 750 mmHg 65%
    02:00 +22°C° 0 mm 3 m/s 750 mmHg 67%
    03:00 +22°C° 0 mm 3 m/s 750 mmHg 70%
    04:00 +21°C° 0 mm 3 m/s 750 mmHg 74%
    05:00 +20°C° 0 mm 2 m/s 750 mmHg 78%
    06:00 +21°C° 0 mm 2 m/s 750 mmHg 75%
    07:00 +23°C° 0 mm 2 m/s 750 mmHg 72%
    08:00 +24°C° 0 mm 1 m/s 750 mmHg 70%
    09:00 +25°C° 0 mm 2 m/s 750 mmHg 69%
    10:00 +26°C° 0 mm 2 m/s 750 mmHg 69%
    11:00 +26°C° 0 mm 3 m/s 750 mmHg 68%
    12:00 +27°C° 0 mm 3 m/s 750 mmHg 67%
    13:00 +27°C° 0 mm 3 m/s 750 mmHg 66%
    14:00 +28°C° 0 mm 4 m/s 749 mmHg 64%
    15:00 +27°C° 0 mm 4 m/s 749 mmHg 67%
    16:00 +27°C° 0 mm 3 m/s 749 mmHg 70%
    17:00 +27°C° 0 mm 3 m/s 749 mmHg 72%
    18:00 +26°C° 0 mm 3 m/s 749 mmHg 77%
    19:00 +24°C° 0 mm 3 m/s 749 mmHg 81%
    20:00 +23°C° 0 mm 2 m/s 750 mmHg 85%
    21:00 +23°C° 0 mm 2 m/s 750 mmHg 87%
    22:00 +23°C° 0 mm 1 m/s 750 mmHg 88%
    23:00 +22°C° 0 mm 1 m/s 750 mmHg 90%
    Voir plus